WAT953 KLBB-KSHV

Flight info

Callsign WAT953
Flight time 1h 59m
Altitude 17000
Route CADOZ
Aircraft BT36/L-BDFGLORY/S

Departure

Time 2026-05-04 16:12
Airport Lubbock Preston Smith International Airport (KLBB)

Arrival

Time 2026-05-04 18:11
Airport Shreveport Regional Airport (KSHV)
Time Latitude Longitude Altitude Speed Heading
2026-05-04 15:56 33.65656 -101.83176 3257 ft 0 kts 139°
2026-05-04 16:04 33.65646 -101.83169 3276 ft 5 kts 162°
2026-05-04 16:04 33.65654 -101.83123 3258 ft 11 kts 88°
2026-05-04 16:05 33.65577 -101.83078 3258 ft 16 kts 180°
2026-05-04 16:05 33.65566 -101.83070 3258 ft 2 kts
2026-05-04 16:05 33.65706 -101.83053 3258 ft 19 kts 39°
2026-05-04 16:06 33.65732 -101.83026 3257 ft 0 kts 40°
2026-05-04 16:06 33.65922 -101.83122 3254 ft 20 kts
2026-05-04 16:07 33.66027 -101.83021 3255 ft 21 kts 88°
2026-05-04 16:07 33.66030 -101.82320 3262 ft 28 kts 89°
2026-05-04 16:08 33.66026 -101.82088 3265 ft 28 kts 91°
2026-05-04 16:08 33.66035 -101.81352 3258 ft 32 kts 90°
2026-05-04 16:09 33.66039 -101.80809 3255 ft 33 kts 89°
2026-05-04 16:09 33.66040 -101.80284 3262 ft 31 kts 89°
2026-05-04 16:10 33.66043 -101.79781 3259 ft 28 kts 84°
2026-05-04 16:11 33.66232 -101.79964 3261 ft 49 kts 269°
2026-05-04 16:11 33.66225 -101.80601 3306 ft 94 kts 266°
2026-05-04 16:12 33.66236 -101.83195 4260 ft 109 kts 270°
2026-05-04 16:12 33.66548 -101.85572 5478 ft 112 kts 267°
2026-05-04 16:13 33.67135 -101.87229 5995 ft 132 kts 324°
2026-05-04 16:13 33.68802 -101.88322 6527 ft 138 kts 324°
2026-05-04 16:14 33.70465 -101.89425 7036 ft 135 kts 323°
2026-05-04 16:14 33.72141 -101.90280 7620 ft 140 kts 354°
2026-05-04 16:15 33.73145 -101.86969 8563 ft 170 kts 99°
2026-05-04 16:16 33.72854 -101.84148 9211 ft 171 kts 96°
2026-05-04 16:16 33.72473 -101.79891 10172 ft 171 kts 97°
2026-05-04 16:17 33.72218 -101.77041 10777 ft 172 kts 97°
2026-05-04 16:18 33.71830 -101.72722 11705 ft 174 kts 96°
2026-05-04 16:18 33.71699 -101.71274 12019 ft 174 kts 96°
2026-05-04 16:19 33.71304 -101.66910 12983 ft 176 kts 96°
2026-05-04 16:19 33.71038 -101.63970 13639 ft 178 kts 96°
2026-05-04 16:20 33.70630 -101.59482 14534 ft 182 kts 96°
2026-05-04 16:20 33.70354 -101.56454 15135 ft 183 kts 96°
2026-05-04 16:21 33.69919 -101.51718 15876 ft 196 kts 95°
2026-05-04 16:22 33.69614 -101.48406 16362 ft 203 kts 96°
2026-05-04 16:22 33.69134 -101.43202 16878 ft 219 kts 95°
2026-05-04 16:23 33.68596 -101.37410 16875 ft 244 kts 95°
2026-05-04 16:24 33.67834 -101.29241 16878 ft 248 kts 96°
2026-05-04 16:25 33.67449 -101.25128 16881 ft 248 kts 96°
2026-05-04 16:26 33.66674 -101.16907 16879 ft 248 kts 96°
2026-05-04 16:26 33.66088 -101.10740 16880 ft 248 kts 96°
2026-05-04 16:27 33.65695 -101.06616 16877 ft 248 kts 96°
2026-05-04 16:28 33.65104 -101.00441 16874 ft 248 kts 96°
2026-05-04 16:28 33.64510 -100.94276 16874 ft 248 kts 96°
2026-05-04 16:29 33.63714 -100.86051 16875 ft 249 kts 96°
2026-05-04 16:30 33.63112 -100.79876 16878 ft 248 kts 96°
2026-05-04 16:31 33.62710 -100.75760 16877 ft 248 kts 96°
2026-05-04 16:31 33.62103 -100.69592 16876 ft 248 kts 96°
2026-05-04 16:32 33.61494 -100.63426 16877 ft 248 kts 96°
2026-05-04 16:33 33.61086 -100.59320 16874 ft 248 kts 96°
2026-05-04 16:33 33.60678 -100.55216 16876 ft 248 kts 96°
2026-05-04 16:34 33.60266 -100.51101 16874 ft 248 kts 96°
2026-05-04 16:34 33.60060 -100.49048 16874 ft 248 kts 96°
2026-05-04 16:35 33.59442 -100.42894 16874 ft 248 kts 96°
2026-05-04 16:35 33.58820 -100.36734 16875 ft 248 kts 96°
2026-05-04 16:36 33.58612 -100.34682 16875 ft 248 kts 96°
2026-05-04 16:36 33.58194 -100.30575 16875 ft 248 kts 96°
2026-05-04 16:37 33.57780 -100.26505 16880 ft 248 kts 96°
2026-05-04 16:37 33.57570 -100.24455 16880 ft 248 kts 96°
2026-05-04 16:37 33.57149 -100.20351 16886 ft 248 kts 96°
2026-05-04 16:38 33.56726 -100.16236 16879 ft 249 kts 96°
2026-05-04 16:39 33.56089 -100.10061 16885 ft 249 kts 96°
2026-05-04 16:39 33.55661 -100.05939 16886 ft 249 kts 96°
2026-05-04 16:40 33.55234 -100.01825 16885 ft 249 kts 96°
2026-05-04 16:40 33.54876 -99.98398 16873 ft 249 kts 97°
2026-05-04 16:41 33.54446 -99.94285 16876 ft 248 kts 97°
2026-05-04 16:41 33.53801 -99.88152 16873 ft 246 kts 97°
2026-05-04 16:42 33.53158 -99.82048 16875 ft 246 kts 97°
2026-05-04 16:43 33.52726 -99.77976 16874 ft 246 kts 97°
2026-05-04 16:43 33.52293 -99.73904 16875 ft 246 kts 97°
2026-05-04 16:43 33.52075 -99.71864 16875 ft 247 kts 97°
2026-05-04 16:44 33.51204 -99.63720 16875 ft 246 kts 97°
2026-05-04 16:45 33.50766 -99.59646 16874 ft 247 kts 97°
2026-05-04 16:46 33.50107 -99.53537 16870 ft 247 kts 97°
2026-05-04 16:46 33.49665 -99.49459 16870 ft 246 kts 97°
2026-05-04 16:47 33.49223 -99.45389 16878 ft 247 kts 97°
2026-05-04 16:47 33.48778 -99.41307 16878 ft 247 kts 97°
2026-05-04 16:48 33.48107 -99.35176 16879 ft 248 kts 97°
2026-05-04 16:48 33.47882 -99.33128 16879 ft 248 kts 97°
2026-05-04 16:49 33.47435 -99.29061 16880 ft 248 kts 97°
2026-05-04 16:49 33.46982 -99.24963 16880 ft 248 kts 97°
2026-05-04 16:50 33.46529 -99.20870 16885 ft 248 kts 97°
2026-05-04 16:50 33.46074 -99.16771 16884 ft 248 kts 97°
2026-05-04 16:51 33.45619 -99.12686 16893 ft 248 kts 97°
2026-05-04 16:51 33.45391 -99.10643 16893 ft 247 kts 97°
2026-05-04 16:51 33.44936 -99.06558 16901 ft 247 kts 97°
2026-05-04 16:52 33.44475 -99.02483 16900 ft 247 kts 97°
2026-05-04 16:52 33.44246 -99.00438 16901 ft 247 kts 97°
2026-05-04 16:53 33.43787 -98.96358 16901 ft 247 kts 96°
2026-05-04 16:53 33.43092 -98.90233 16904 ft 248 kts 97°
2026-05-04 16:54 33.42860 -98.88191 16903 ft 247 kts 97°
2026-05-04 16:55 33.41932 -98.80037 16903 ft 247 kts 97°
2026-05-04 16:55 33.41464 -98.75955 16911 ft 248 kts 97°
2026-05-04 16:56 33.40996 -98.71873 16914 ft 247 kts 97°
2026-05-04 16:56 33.40290 -98.65749 16915 ft 248 kts 97°
2026-05-04 16:57 33.40054 -98.63706 16920 ft 248 kts 97°
2026-05-04 16:57 33.39581 -98.59619 16922 ft 248 kts 97°
2026-05-04 16:58 33.38868 -98.53488 16916 ft 248 kts 97°
2026-05-04 16:58 33.38629 -98.51436 16914 ft 249 kts 97°
2026-05-04 16:59 33.38150 -98.47335 16917 ft 249 kts 97°
2026-05-04 17:00 33.37187 -98.39136 16916 ft 249 kts 97°
2026-05-04 17:00 33.36464 -98.32991 16930 ft 250 kts 97°
2026-05-04 17:01 33.35974 -98.28860 16930 ft 250 kts 97°
2026-05-04 17:01 33.35490 -98.24787 16994 ft 248 kts 97°
2026-05-04 17:02 33.34998 -98.20655 16993 ft 249 kts 97°
2026-05-04 17:02 33.34511 -98.16578 17011 ft 250 kts 97°
2026-05-04 17:03 33.34265 -98.14521 17014 ft 250 kts 97°
2026-05-04 17:03 33.34019 -98.12462 17020 ft 250 kts 97°
2026-05-04 17:03 33.33524 -98.08346 17029 ft 251 kts 97°
2026-05-04 17:04 33.33027 -98.04218 17042 ft 251 kts 97°
2026-05-04 17:04 33.32529 -98.00090 17050 ft 251 kts 97°
2026-05-04 17:05 33.32028 -97.95962 17065 ft 251 kts 96°
2026-05-04 17:05 33.31528 -97.91842 17071 ft 251 kts 97°
2026-05-04 17:06 33.31025 -97.87714 17077 ft 251 kts 96°
2026-05-04 17:06 33.30774 -97.85654 17079 ft 251 kts 96°
2026-05-04 17:07 33.30267 -97.81521 17080 ft 251 kts 97°
2026-05-04 17:07 33.30100 -97.80154 17081 ft 250 kts 97°
2026-05-04 17:07 33.29766 -97.77428 17081 ft 250 kts 97°
2026-05-04 17:07 33.29513 -97.75370 17078 ft 250 kts 97°
2026-05-04 17:08 33.29261 -97.73319 17057 ft 250 kts 97°
2026-05-04 17:08 33.28753 -97.69209 17059 ft 250 kts 97°
2026-05-04 17:08 33.28499 -97.67156 17062 ft 250 kts 97°
2026-05-04 17:09 33.28244 -97.65094 17060 ft 251 kts 97°
2026-05-04 17:09 33.27986 -97.63012 17062 ft 251 kts 97°
2026-05-04 17:09 33.27733 -97.60973 17062 ft 251 kts 97°
2026-05-04 17:10 33.27220 -97.56853 17062 ft 250 kts 97°
2026-05-04 17:10 33.26454 -97.50708 17062 ft 249 kts 97°
2026-05-04 17:11 33.26197 -97.48661 17064 ft 249 kts 97°
2026-05-04 17:11 33.25941 -97.46617 17064 ft 249 kts 97°
2026-05-04 17:11 33.25427 -97.42525 17070 ft 249 kts 97°
2026-05-04 17:12 33.25169 -97.40477 17072 ft 249 kts 97°
2026-05-04 17:12 33.24653 -97.36384 17077 ft 249 kts 97°
2026-05-04 17:13 33.23879 -97.30265 17081 ft 248 kts 97°
2026-05-04 17:14 33.23103 -97.24160 17081 ft 248 kts 97°
2026-05-04 17:14 33.22843 -97.22115 17081 ft 248 kts 97°
2026-05-04 17:14 33.22322 -97.18036 17082 ft 249 kts 97°
2026-05-04 17:15 33.22061 -97.15987 17083 ft 249 kts 97°
2026-05-04 17:15 33.21536 -97.11902 17083 ft 249 kts 97°
2026-05-04 17:16 33.21012 -97.07816 17082 ft 249 kts 97°
2026-05-04 17:16 33.20221 -97.01682 17079 ft 249 kts 97°
2026-05-04 17:17 33.19956 -96.99633 17078 ft 250 kts 97°
2026-05-04 17:17 33.19161 -96.93495 17073 ft 249 kts 97°
2026-05-04 17:18 33.18895 -96.91454 17071 ft 249 kts 97°
2026-05-04 17:18 33.18363 -96.87366 17076 ft 249 kts 97°
2026-05-04 17:19 33.17828 -96.83269 17080 ft 250 kts 97°
2026-05-04 17:19 33.17292 -96.79177 17085 ft 250 kts 97°
2026-05-04 17:20 33.16755 -96.75087 17088 ft 249 kts 97°
2026-05-04 17:20 33.16221 -96.71029 17090 ft 249 kts 97°
2026-05-04 17:20 33.15953 -96.68991 17091 ft 249 kts 97°
2026-05-04 17:21 33.15411 -96.64890 17091 ft 248 kts 97°
2026-05-04 17:21 33.14871 -96.60813 17091 ft 249 kts 97°
2026-05-04 17:22 33.14605 -96.58804 17090 ft 248 kts 97°
2026-05-04 17:22 33.14331 -96.56745 17091 ft 248 kts 97°
2026-05-04 17:23 33.13522 -96.50668 17077 ft 248 kts 97°
2026-05-04 17:23 33.13250 -96.48636 17078 ft 249 kts 97°
2026-05-04 17:23 33.12705 -96.44558 17083 ft 249 kts 97°
2026-05-04 17:24 33.12432 -96.42521 17087 ft 249 kts 97°
2026-05-04 17:24 33.11610 -96.36410 17097 ft 249 kts 97°
2026-05-04 17:25 33.11335 -96.34369 17101 ft 249 kts 97°
2026-05-04 17:25 33.10786 -96.30299 17105 ft 249 kts 97°
2026-05-04 17:26 33.10235 -96.26232 17110 ft 249 kts 97°
2026-05-04 17:26 33.09499 -96.20809 17107 ft 248 kts 97°
2026-05-04 17:27 33.08946 -96.16745 17110 ft 248 kts 97°
2026-05-04 17:27 33.08391 -96.12681 17110 ft 249 kts 97°
2026-05-04 17:28 33.07835 -96.08616 17116 ft 248 kts 97°
2026-05-04 17:29 33.06996 -96.02507 17110 ft 249 kts 97°
2026-05-04 17:29 33.06156 -95.96400 17111 ft 249 kts 97°
2026-05-04 17:30 33.05310 -95.90291 17106 ft 249 kts 97°
2026-05-04 17:31 33.04745 -95.86217 17104 ft 249 kts 97°
2026-05-04 17:31 33.03897 -95.80118 17095 ft 249 kts 97°
2026-05-04 17:32 33.03329 -95.76045 17096 ft 249 kts 97°
2026-05-04 17:33 33.02477 -95.69967 17094 ft 249 kts 97°
2026-05-04 17:33 33.02192 -95.67925 17094 ft 250 kts 97°
2026-05-04 17:34 33.01328 -95.61793 17105 ft 250 kts 97°
2026-05-04 17:34 33.01039 -95.59746 17107 ft 250 kts 97°
2026-05-04 17:35 33.00172 -95.53607 17107 ft 251 kts 97°
2026-05-04 17:35 32.99592 -95.49515 17108 ft 251 kts 97°
2026-05-04 17:35 32.99300 -95.47467 17110 ft 250 kts 97°
2026-05-04 17:36 32.99010 -95.45426 17110 ft 250 kts 97°
2026-05-04 17:36 32.98719 -95.43381 17109 ft 251 kts 97°
2026-05-04 17:36 32.98428 -95.41336 17109 ft 250 kts 97°
2026-05-04 17:36 32.98135 -95.39286 17111 ft 251 kts 97°
2026-05-04 17:37 32.97844 -95.37248 17106 ft 250 kts 97°
2026-05-04 17:37 32.97552 -95.35208 17105 ft 250 kts 97°
2026-05-04 17:37 32.97257 -95.33155 17121 ft 250 kts 97°
2026-05-04 17:37 32.96965 -95.31116 17109 ft 251 kts 97°
2026-05-04 17:38 32.96670 -95.29062 17109 ft 251 kts 97°
2026-05-04 17:38 32.96376 -95.27013 17108 ft 251 kts 97°
2026-05-04 17:38 32.96081 -95.24962 17108 ft 251 kts 97°
2026-05-04 17:38 32.95784 -95.22911 17108 ft 251 kts 97°
2026-05-04 17:39 32.95192 -95.18805 17110 ft 251 kts 97°
2026-05-04 17:39 32.94896 -95.16760 17115 ft 251 kts 97°
2026-05-04 17:39 32.94599 -95.14706 17117 ft 252 kts 97°
2026-05-04 17:40 32.94301 -95.12653 17119 ft 252 kts 97°
2026-05-04 17:40 32.94001 -95.10585 17031 ft 256 kts 97°
2026-05-04 17:40 32.93697 -95.08502 17011 ft 255 kts 97°
2026-05-04 17:40 32.93396 -95.06430 17012 ft 254 kts 97°
2026-05-04 17:41 32.93094 -95.04358 17014 ft 253 kts 97°
2026-05-04 17:41 32.92795 -95.02301 17013 ft 252 kts 97°
2026-05-04 17:41 32.92494 -95.00249 17015 ft 251 kts 97°
2026-05-04 17:41 32.92195 -94.98196 17015 ft 251 kts 97°
2026-05-04 17:42 32.91895 -94.96151 17013 ft 251 kts 97°
2026-05-04 17:42 32.91594 -94.94098 17015 ft 251 kts 97°
2026-05-04 17:42 32.91294 -94.92049 17015 ft 251 kts 97°
2026-05-04 17:42 32.90993 -94.90003 17015 ft 251 kts 98°
2026-05-04 17:43 32.90693 -94.87962 17018 ft 251 kts 98°
2026-05-04 17:43 32.90391 -94.85910 17017 ft 252 kts 98°
2026-05-04 17:43 32.90088 -94.83856 17016 ft 252 kts 98°
2026-05-04 17:43 32.89786 -94.81809 17015 ft 252 kts 98°
2026-05-04 17:44 32.89483 -94.79754 17015 ft 252 kts 98°
2026-05-04 17:44 32.89181 -94.77712 17015 ft 252 kts 97°
2026-05-04 17:44 32.88875 -94.75652 17014 ft 252 kts 98°
2026-05-04 17:44 32.88570 -94.73594 17012 ft 252 kts 98°
2026-05-04 17:45 32.88266 -94.71547 17010 ft 251 kts 97°
2026-05-04 17:45 32.87961 -94.69498 17008 ft 251 kts 97°
2026-05-04 17:45 32.87657 -94.67450 17000 ft 251 kts 98°
2026-05-04 17:45 32.87352 -94.65403 17000 ft 251 kts 98°
2026-05-04 17:46 32.87047 -94.63355 16996 ft 251 kts 98°
2026-05-04 17:46 32.86740 -94.61308 17000 ft 252 kts 98°
2026-05-04 17:46 32.86434 -94.59258 16997 ft 252 kts 98°
2026-05-04 17:46 32.86126 -94.57199 17016 ft 253 kts 98°
2026-05-04 17:47 32.85817 -94.55140 17010 ft 252 kts 98°
2026-05-04 17:47 32.85509 -94.53088 17002 ft 252 kts 98°
2026-05-04 17:47 32.85202 -94.51045 17004 ft 251 kts 98°
2026-05-04 17:47 32.84896 -94.49006 17006 ft 251 kts 98°
2026-05-04 17:48 32.84589 -94.46970 16996 ft 250 kts 98°
2026-05-04 17:48 32.84282 -94.44930 17004 ft 250 kts 98°
2026-05-04 17:48 32.83975 -94.42893 17007 ft 250 kts 98°
2026-05-04 17:48 32.83667 -94.40856 17009 ft 250 kts 98°
2026-05-04 17:49 32.83360 -94.38827 17014 ft 250 kts 98°
2026-05-04 17:49 32.83052 -94.36792 17018 ft 250 kts 98°
2026-05-04 17:49 32.82744 -94.34757 17008 ft 250 kts 98°
2026-05-04 17:49 32.82434 -94.32717 17015 ft 250 kts 98°
2026-05-04 17:50 32.82124 -94.30682 17014 ft 250 kts 98°
2026-05-04 17:50 32.81813 -94.28642 17017 ft 251 kts 98°
2026-05-04 17:50 32.81505 -94.26604 17006 ft 251 kts 98°
2026-05-04 17:50 32.81194 -94.24557 17005 ft 251 kts 98°
2026-05-04 17:51 32.80880 -94.22514 17004 ft 252 kts 98°
2026-05-04 17:51 32.80567 -94.20467 17006 ft 252 kts 98°
2026-05-04 17:51 32.80254 -94.18418 17015 ft 252 kts 99°
2026-05-04 17:51 32.79922 -94.16380 17013 ft 251 kts 104°
2026-05-04 17:52 32.79206 -94.14498 17008 ft 249 kts 126°
2026-05-04 17:52 32.78040 -94.12933 16591 ft 258 kts 147°
2026-05-04 17:52 32.76604 -94.11643 16117 ft 260 kts 148°
2026-05-04 17:52 32.75158 -94.10332 15637 ft 262 kts 147°
2026-05-04 17:53 32.73715 -94.09006 15163 ft 262 kts 147°
2026-05-04 17:53 32.72274 -94.07686 14691 ft 261 kts 147°
2026-05-04 17:53 32.70838 -94.06379 14230 ft 260 kts 147°
2026-05-04 17:53 32.69408 -94.05078 13765 ft 258 kts 147°
2026-05-04 17:54 32.68002 -94.03797 13247 ft 251 kts 147°
2026-05-04 17:54 32.66633 -94.02549 12740 ft 245 kts 147°
2026-05-04 17:54 32.65291 -94.01327 12239 ft 241 kts 147°
2026-05-04 17:54 32.63973 -94.00128 11743 ft 237 kts 147°
2026-05-04 17:55 32.62678 -93.98952 11255 ft 232 kts 147°
2026-05-04 17:55 32.61476 -93.97696 10772 ft 232 kts 130°
2026-05-04 17:55 32.60892 -93.95937 10284 ft 230 kts 94°
2026-05-04 17:55 32.61154 -93.94123 9802 ft 221 kts 65°
2026-05-04 17:56 32.61765 -93.92499 9303 ft 217 kts 62°
2026-05-04 17:56 32.62424 -93.90865 8785 ft 215 kts 61°
2026-05-04 17:56 32.63073 -93.89295 8291 ft 214 kts 61°
2026-05-04 17:56 32.63745 -93.87708 7792 ft 212 kts 61°
2026-05-04 17:57 32.64497 -93.86257 7310 ft 208 kts 42°
2026-05-04 17:57 32.65734 -93.85503 6828 ft 198 kts
2026-05-04 17:57 32.67073 -93.85479 6645 ft 178 kts 353°
2026-05-04 17:57 32.68240 -93.85501 6624 ft 162 kts 353°
2026-05-04 17:58 32.69306 -93.85502 6630 ft 146 kts 353°
2026-05-04 17:58 32.70277 -93.85522 6619 ft 136 kts 352°
2026-05-04 17:58 32.71195 -93.85525 6620 ft 127 kts 351°
2026-05-04 17:58 32.72087 -93.85512 6626 ft 137 kts 354°
2026-05-04 17:59 32.73107 -93.85525 6640 ft 155 kts 353°
2026-05-04 17:59 32.74225 -93.85560 6640 ft 166 kts 353°
2026-05-04 17:59 32.76625 -93.85621 6633 ft 178 kts 354°
2026-05-04 18:00 32.77820 -93.85202 6625 ft 188 kts 33°
2026-05-04 18:00 32.78556 -93.83924 6618 ft 193 kts 77°
2026-05-04 18:00 32.78441 -93.82380 6616 ft 188 kts 120°
2026-05-04 18:00 32.77561 -93.81332 6628 ft 177 kts 162°
2026-05-04 18:01 32.76361 -93.81219 6408 ft 176 kts 201°
2026-05-04 18:01 32.75426 -93.82077 6164 ft 172 kts 238°
2026-05-04 18:01 32.74975 -93.83406 5919 ft 175 kts 247°
2026-05-04 18:02 32.73663 -93.85791 5438 ft 173 kts 228°
2026-05-04 18:02 32.72876 -93.86860 5193 ft 171 kts 227°
2026-05-04 18:02 32.72100 -93.87920 4951 ft 169 kts 227°
2026-05-04 18:02 32.71334 -93.88970 4699 ft 167 kts 227°
2026-05-04 18:03 32.70576 -93.90010 4445 ft 165 kts 226°
2026-05-04 18:03 32.69822 -93.91046 4191 ft 166 kts 226°
2026-05-04 18:03 32.69071 -93.92074 3943 ft 164 kts 226°
2026-05-04 18:03 32.68326 -93.93096 3702 ft 164 kts 226°
2026-05-04 18:04 32.67576 -93.94125 3447 ft 164 kts 225°
2026-05-04 18:04 32.66834 -93.95143 3194 ft 163 kts 225°
2026-05-04 18:04 32.65426 -93.97076 3118 ft 147 kts 224°
2026-05-04 18:05 32.64771 -93.97972 3113 ft 141 kts 224°
2026-05-04 18:05 32.64064 -93.98751 3086 ft 141 kts 206°
2026-05-04 18:05 32.63103 -93.99004 2942 ft 145 kts 179°
2026-05-04 18:05 32.62147 -93.98599 2822 ft 152 kts 150°
2026-05-04 18:06 32.60393 -93.96966 2632 ft 161 kts 147°
2026-05-04 18:06 32.59517 -93.96224 2630 ft 150 kts 150°
2026-05-04 18:06 32.58690 -93.95505 2626 ft 146 kts 148°
2026-05-04 18:07 32.57876 -93.94762 2620 ft 146 kts 148°
2026-05-04 18:07 32.57088 -93.94049 2624 ft 140 kts 147°
2026-05-04 18:07 32.56317 -93.93347 2678 ft 141 kts 146°
2026-05-04 18:07 32.55510 -93.92617 2651 ft 151 kts 151°
2026-05-04 18:08 32.54649 -93.91874 2533 ft 154 kts 147°
2026-05-04 18:08 32.53799 -93.91074 2341 ft 158 kts 147°
2026-05-04 18:08 32.52916 -93.90282 2131 ft 159 kts 148°
2026-05-04 18:08 32.52336 -93.89763 1993 ft 156 kts 147°
2026-05-04 18:09 32.50679 -93.88261 1590 ft 140 kts 148°
2026-05-04 18:09 32.49290 -93.87009 1262 ft 112 kts 149°
2026-05-04 18:10 32.48660 -93.86434 1114 ft 120 kts 145°
2026-05-04 18:10 32.47973 -93.85820 950 ft 126 kts 148°
2026-05-04 18:10 32.47270 -93.85183 778 ft 129 kts 149°
2026-05-04 18:10 32.46552 -93.84543 601 ft 129 kts 149°
2026-05-04 18:11 32.45881 -93.83899 437 ft 122 kts 147°
2026-05-04 18:11 32.45249 -93.83351 291 ft 100 kts 149°
2026-05-04 18:11 32.44769 -93.82924 245 ft 73 kts 153°
2026-05-04 18:11 32.44441 -93.82651 247 ft 41 kts 143°
2026-05-04 18:12 32.44250 -93.82472 248 ft 34 kts 138°
2026-05-04 18:12 32.44176 -93.82310 249 ft 23 kts 52°
2026-05-04 18:12 32.44300 -93.82316 246 ft 23 kts 318°
2026-05-04 18:12 32.44448 -93.82434 248 ft 29 kts 336°
2026-05-04 18:13 32.44667 -93.82510 247 ft 36 kts 350°
2026-05-04 18:13 32.44919 -93.82569 244 ft 37 kts 347°
2026-05-04 18:13 32.45202 -93.82617 250 ft 14 kts 354°
2026-05-04 18:14 32.45209 -93.82641 251 ft 0 kts 235°